STARLINK-35787 (66978 NORAD) Tracking and Keplerian Element Data

This shows tracking and keplerian element data for the satellite.

Feedback or suggestion? Click here.




ElementValue
Catalog66978
NameSTARLINK-35787
Epoch Orbit303
Epoch Day354.25003472
Epoch Year2025
RAAN121.0761
Inclination43.0018
Eccentricity0.0001663
Argument of Perigee275.4994
Mean Anonmoly124.7553
Mean Motion15.81007072
Decay Rate-0.01484482
L11 66978U 25288V 25354.25003472 -.01484482 00000+0 -83653-2 0 9992
L22 66978 43.0018 121.0761 0001663 275.4994 124.7553 15.81007072 3032



Live tracking and technical data element details for STARLINK-35787 (NORAD 66978). STARLINK-35787 can be tracked NOW for your location showing map with azimuth and elevation plus other details from your city location.







IsCatalogInMostPopularTable: catalog: 66978, numindb: 13
Update: records affected: 1



GetName: 66978 STARLINK-35787

Hit Count: updated at: Fri, 16 Jan 2026 10:23:32 GMT